Home > Weather > Whitehorse > Past weeks

Flag for Canada Past Weather in Whitehorse, Yukon, Canada — Yesterday and Last 2 Weeks

Now
50 °F

Mostly cloudy.


Feels Like: 50 °F
Forecast: 43 / 49 °F
Wind: 2 mph from North

Location: Whitehorse

Current Time: Aug 29, 2016 at 8:22:06 PM

Latest Report: Aug 29, 2016 at 7:00 PM


Visibility: 30 mi

Pressure: 30.19 "Hg (27.95 "Hg at 640m altitude)

Humidity: 67%

Dew Point: 39 °F

Location of WhitehorseLocation

Past Weather in Whitehorse — Graph

°F

Whitehorse Temperature Yesterday

Maximum temperature yesterday: 59 °F (at 3:00 PM)
Minimum temperature yesterday: 46 °F (at 5:00 AM)
Average temperature yesterday: 51 °F

High & Low Weather Summary for the Past Weeks

 TemperatureHumidityPressure
High73 °F (Aug 24, 5:00 PM)100% (Aug 21, 8:00 AM)30.51 "Hg (Aug 21, 8:00 AM)
Low37 °F (Aug 21, 7:00 AM)29% (Aug 21, 7:00 PM)29.78 "Hg (Aug 21, 7:00 PM)
Average56 °F66%30.12 "Hg
* Reported Aug 14 7:00 PM — Aug 29 7:00 PM, Whitehorse, Weather by CustomWeather, © 2016

Note: Actual official high and low records may vary slightly from our data, if they occured in-between our weather recording intervals... More about our weather records

Advertising

Whitehorse Weather History for the Previous 24 Hours

Scroll right to see more
 ConditionsComfort  
Time TempWeatherWind HumidityBarometerVisibility
7:00 PM
Mon, Aug 29
50 °FMostly cloudy.2 mph67%30.19 "Hg30 mi
6:00 PM48 °FScattered showers. Mostly cloudy.5 mph71%30.19 "Hg30 mi
5:00 PM50 °FScattered showers. Mostly cloudy.5 mph71%30.19 "Hg40 mi
4:00 PM50 °FCloudy.3 mph71%30.18 "Hg40 mi
3:00 PM50 °FScattered showers. More clouds than sun.3 mph71%30.18 "Hg25 mi
2:00 PM48 °FScattered showers. More clouds than sun.5 mph71%30.17 "Hg20 mi
1:00 PM46 °FLight rain. Mostly cloudy.2 mph87%30.17 "Hg30 mi
12:00 PM46 °FMore clouds than sun.8 mph82%30.16 "Hg30 mi
11:00 AM45 °FMore clouds than sun.8 mph87%30.16 "Hg20 mi
10:46 AM45 °FMore clouds than sun.6 mph87%30.16 "Hg15 mi
10:00 AM45 °FLight rain. Mostly cloudy.5 mph87%30.16 "Hg10 mi
9:00 AM45 °FLight rain. Low clouds.5 mph81%30.14 "Hg8 mi
8:00 AM45 °FMostly cloudy.9 mph76%30.13 "Hg15 mi
7:00 AM45 °FMostly cloudy.7 mph76%30.11 "Hg15 mi
6:00 AM46 °FMostly cloudy.9 mph76%30.10 "Hg15 mi
5:00 AM46 °FPassing clouds.8 mph76%30.10 "Hg15 mi
4:00 AM46 °FPassing clouds.8 mph76%30.10 "Hg15 mi
3:00 AM46 °FPassing clouds.5 mph82%30.09 "Hg15 mi
2:00 AM48 °FPartly cloudy.7 mph76%30.09 "Hg15 mi
1:00 AM48 °FPartly cloudy.2 mph87%30.09 "Hg15 mi
12:00 AM48 °FPartly cloudy.2 mph82%30.08 "Hg15 mi
11:00 PM
Sun, Aug 28
48 °FScattered showers. Partly cloudy.2 mph82%30.09 "Hg15 mi
10:47 PM48 °FScattered showers. Passing clouds.6 mph87%30.09 "Hg15 mi
10:00 PM48 °FSprinkles. More clouds than sun.5 mph82%30.09 "Hg15 mi
9:52 PM48 °FSprinkles. More clouds than sun.3 mph82%30.09 "Hg15 mi
9:00 PM52 °FScattered showers. Partly sunny.10 mph67%30.08 "Hg40 mi
8:00 PM54 °FScattered showers. Partly sunny.5 mph67%30.08 "Hg40 mi
Weather by CustomWeather, © 2016

See weather overviewHow to use our weather pages